PROFILE

 METAR AND TAF INFORMATION
ADDS - METARS form results

(0843 UTC 19 August 2019)
http://aviationweather.gov/metar/data/
 
LIRF 190820Z VRB03KT CAVOK 27/16 Q1016 NOSIG
LIRF 190750Z 28003KT 190V350 CAVOK 26/18 Q1016 NOSIG
TAF LIRF 190500Z 1906/2012 VRB05KT CAVOK BECMG 1910/1912 28012KT BECMG 1918/1920 VRB05KT TEMPO 2002/2006 0800 BCFG BECMG 2010/2012 28012KT 

 AIRPORT MAP

 RUNWAY INFORMATION
Runway 07 Runway length 10849 ft Runway width 148 ft
Runway elevation 7 ft Runway displaced threshold 1365 ft Runway heading 70
Runway 25 Runway length 10849 ft Runway width 148 ft
Runway elevation 7 ft Runway displaced threshold 0 ft Runway heading 250
Runway 16C Runway length 11818 ft Runway width 148 ft
Runway elevation 11 ft Runway displaced threshold 0 ft Runway heading 163
Runway 34C Runway length 11818 ft Runway width 148 ft
Runway elevation 4 ft Runway displaced threshold 0 ft Runway heading 343
Runway 16L Runway length 12795 ft Runway width 197 ft
Runway elevation 14 ft Runway displaced threshold 0 ft Runway heading 163
Runway 34R Runway length 12795 ft Runway width 197 ft
Runway elevation 7 ft Runway displaced threshold 0 ft Runway heading 343
Runway 16R Runway length 12795 ft Runway width 197 ft
Runway elevation 7 ft Runway displaced threshold 0 ft Runway heading 163
Runway 34L Runway length 12795 ft Runway width 197 ft
Runway elevation 8 ft Runway displaced threshold 1053 ft Runway heading 343

 AIRPORT FREQUENCIES
Type ARR Name ROMA DIREC Frequency 119.2 MHZ
Type ATIS Name ATIS Frequency 114.9 MHZ
Type CLD Name FIUME RAMP Frequency 121.725 MHZ
Type GND Name FIUME GND/ Frequency 121.8 MHZ
Type TWR Name FIUME TWR Frequency 118.7 MHZ

 AIRPORT NEAR NAVIGATION AIDS
Type NDB Name Fiumicino Frequency 354 KHZ
Type NDB Name Fiumicino Frequency 421 KHZ
Type NDB Name Fiumicino Frequency 345 KHZ
Type VOR-DME Name Ostia Frequency 114900 KHZ
Type NDB Name Ostia Frequency 321 KHZ